Theta_e
326 320 318 323 328 328 328 328 328 328 328 328 327 326 325 324 322 320 319 318 317 318 319 320 321 322 322 322 322 320 319 318 317 317 317 317 316 317 317 317 317 318 317 316 314 313 312 312 312 313 312 312
323 319 315 319 327 327 328 328 327 328 328 328 326 324 323 322 320 318 317 316 316 318 320 321 321 321 321 321 320 319 318 317 317 316 316 316 316 316 316 316 316 317 315 313 313 313 312 312 312 312 312 311
322 322 319 320 326 327 327 328 327 328 327 326 324 322 321 319 318 316 316 315 316 319 320 320 321 320 320 319 319 318 317 316 316 316 316 316 316 316 316 316 316 315 314 312 312 312 312 312 312 311 310 309
323 324 324 325 327 327 327 328 327 327 326 324 321 320 318 317 316 316 315 314 317 320 320 319 319 319 319 318 318 317 316 316 316 316 316 316 316 315 316 315 315 314 312 312 312 312 312 311 310 309 308 308
324 325 326 327 327 327 327 327 327 326 324 322 320 318 317 317 316 316 315 315 318 319 319 318 318 317 317 317 316 316 315 315 316 316 316 316 315 315 315 314 314 312 311 312 311 311 310 309 308 308 308 308
322 323 325 326 326 327 327 327 327 325 322 320 319 317 317 316 316 316 315 316 318 318 317 316 316 316 315 315 315 315 315 315 316 316 316 315 315 315 314 313 312 311 310 311 310 309 308 307 308 308 308 308
321 322 323 324 326 327 327 327 326 324 320 319 318 317 316 316 315 315 315 316 317 316 316 315 314 313 313 313 314 315 315 316 316 316 315 315 314 314 313 312 311 310 310 309 308 308 307 308 308 309 309 308
321 321 323 324 325 326 326 325 323 320 319 318 317 316 316 315 315 315 314 315 315 315 314 313 312 312 313 314 315 315 315 315 314 314 314 314 313 313 312 311 310 309 309 308 308 308 308 309 309 308 308 309
321 321 323 324 324 325 324 323 320 317 317 316 316 316 316 315 315 314 314 314 314 313 313 312 311 312 313 314 315 315 314 313 313 313 313 313 312 312 311 310 309 309 309 308 308 308 308 309 309 309 308 310
322 322 323 323 323 324 322 321 320 317 315 315 315 315 315 315 314 314 314 314 313 312 312 311 312 313 314 314 314 314 313 312 312 313 312 312 311 311 310 309 309 309 308 308 308 309 309 309 309 309 309 311
322 322 323 322 322 323 321 319 319 317 315 315 315 315 315 315 314 313 313 313 312 311 310 310 312 313 314 314 313 312 312 311 311 312 311 311 310 310 309 309 309 309 309 309 309 309 310 310 309 309 310 310
321 321 322 322 321 321 319 318 318 316 315 314 314 314 314 314 313 312 312 312 311 310 309 311 312 313 313 314 312 311 311 311 310 310 310 310 309 309 309 309 309 309 308 308 309 309 310 310 309 309 310 309
319 320 320 320 319 319 318 317 316 315 313 313 313 314 313 313 313 311 311 310 310 309 310 311 312 312 313 313 311 310 310 309 309 308 308 308 308 308 308 308 308 308 308 308 308 309 309 309 309 309 309 309
314 316 317 317 316 317 317 316 314 313 313 313 313 313 312 312 312 311 310 309 309 309 310 311 312 312 312 312 311 310 309 308 308 307 306 307 307 307 308 308 308 307 307 307 307 307 308 308 308 308 308 308
311 311 312 313 314 315 314 314 313 313 313 313 313 312 312 312 310 310 309 309 308 309 310 310 311 311 311 311 310 310 309 307 307 306 305 305 306 306 307 307 307 307 307 306 306 306 306 307 307 308 308 308
311 309 309 310 311 312 312 312 312 312 312 312 312 312 311 311 309 309 309 309 308 308 310 309 310 310 309 310 309 309 308 306 306 305 303 304 304 305 306 306 306 306 306 305 305 305 305 305 306 307 307 307
310 309 308 308 308 309 310 311 311 310 310 310 310 310 310 309 308 309 309 308 308 308 309 309 308 309 309 309 308 307 307 306 304 304 303 303 303 304 305 305 305 305 305 305 304 304 304 305 305 305 306 306
309 309 308 307 307 306 307 308 309 309 309 309 308 308 308 308 308 308 308 307 307 308 308 308 308 309 309 309 307 307 307 306 304 303 303 302 302 302 303 304 304 304 304 304 304 304 304 304 304 304 304 305
308 308 308 307 306 306 305 306 307 308 309 308 307 307 307 307 307 307 307 307 307 307 307 308 308 309 308 308 307 307 307 306 304 303 302 302 301 301 301 303 303 303 304 303 303 303 303 303 302 302 303 303
308 308 308 308 307 306 305 305 305 305 307 308 308 307 307 307 307 306 306 306 306 307 308 308 308 309 308 307 307 306 306 306 304 302 302 301 301 301 300 301 301 302 303 303 302 302 302 302 302 301 301 301
307 307 307 307 307 306 305 305 304 304 306 308 309 308 307 307 306 306 306 305 306 307 308 308 308 308 308 307 307 306 305 305 304 302 302 300 300 300 300 299 300 300 301 301 301 301 300 300 300 300 300 300
304 306 307 306 306 307 306 306 306 306 306 307 308 308 307 307 306 305 305 304 305 306 307 308 308 308 307 307 306 306 305 304 303 302 302 300 299 299 299 299 299 299 299 299 299 299 299 299 299 299 299 299
303 303 305 305 305 305 306 306 307 308 307 306 307 307 307 306 305 305 304 303 304 305 305 306 307 307 306 306 306 305 304 303 302 301 301 300 299 298 298 298 299 299 298 298 298 298 298 298 298 298 298 298
302 302 303 303 304 304 303 303 305 307 307 306 306 306 306 306 305 305 304 304 303 304 304 304 305 305 305 305 305 304 303 302 302 302 301 300 299 298 297 297 297 298 298 298 297 297 297 297 297 297 297 297
299 300 300 301 302 302 302 302 303 305 305 305 304 304 305 305 305 305 304 304 304 303 304 304 304 304 305 305 304 304 303 302 302 301 301 299 298 298 297 296 296 296 297 297 295 294 295 296 296 297 297 297
297 297 298 299 299 300 301 302 301 302 303 304 303 303 303 304 305 305 304 304 303 303 303 303 303 304 304 304 303 303 302 302 301 300 300 299 297 297 296 296 296 295 295 295 294 292 293 294 295 295 295 296
295 296 296 297 298 299 300 301 301 301 301 302 302 302 302 302 303 304 304 304 303 303 303 303 303 303 303 302 302 302 301 301 300 299 299 298 298 296 295 295 295 295 295 295 293 293 294 293 293 295 294 293
295 295 296 297 298 298 298 299 299 300 300 301 301 301 301 301 301 301 302 303 303 303 303 303 302 302 301 302 302 302 301 300 299 299 298 298 297 296 294 294 293 294 294 295 295 293 293 289 288 293 293 289
294 295 296 296 297 298 298 298 298 298 299 299 299 300 300 300 300 300 300 301 302 303 303 302 302 302 301 301 301 301 300 300 299 298 298 297 296 296 295 293 292 293 293 294 295 294 293 290 290 295 290 285
293 294 294 295 295 295 296 296 296 296 296 297 298 298 299 299 299 299 299 299 300 301 301 302 302 302 302 301 301 300 300 300 299 298 298 297 296 296 295 293 291 292 292 292 294 294 294 292 293 293 287 287
292 293 293 293 293 293 293 294 294 294 295 296 297 297 298 298 298 298 298 298 299 299 300 300 301 301 301 301 300 300 300 299 299 298 297 297 297 296 294 292 291 291 292 291 292 293 293 291 290 288 286 289
Wind_Speed
26 23 22 27 28 26 26 26 25 24 26 26 25 25 24 23 22 21 20 17 12 11 12 15 15 15 16 17 18 18 17 16 15 14 14 14 14 15 15 14 15 16 17 18 21 23 22 21 20 20 19 20
27 27 26 29 31 29 29 27 27 26 26 27 27 27 26 26 23 20 18 14 12 12 13 16 18 17 17 18 19 18 17 15 14 14 14 15 15 16 16 15 15 16 16 19 22 23 23 22 21 20 19 19
27 28 30 34 35 34 32 30 29 27 27 29 28 28 28 26 23 19 14 13 15 13 14 16 18 18 18 19 18 17 16 15 14 14 15 15 16 17 16 16 17 17 18 22 23 23 24 24 22 20 18 17
27 25 31 37 37 35 35 32 30 29 29 30 31 30 29 27 24 20 14 16 19 16 16 17 18 18 18 17 16 16 15 14 14 15 16 17 18 18 16 17 17 18 22 25 25 25 26 25 22 20 18 17
31 27 29 36 38 35 34 31 29 30 31 32 33 32 29 27 24 19 16 19 21 19 18 18 18 17 16 15 14 14 14 14 15 16 17 18 19 18 18 19 18 21 26 27 26 26 25 24 22 20 19 16
30 30 30 33 35 34 33 31 30 31 33 35 35 32 28 25 22 20 21 22 21 20 18 17 18 16 14 13 12 12 14 16 16 17 18 20 20 19 20 20 20 25 28 26 26 26 23 22 22 20 19 14
27 30 30 29 31 33 33 32 33 35 36 37 36 32 28 26 25 23 23 23 21 20 19 17 16 14 13 13 12 13 16 17 17 18 20 22 23 22 21 19 22 27 27 26 25 23 22 22 22 19 17 14
25 27 27 26 30 33 32 32 35 38 39 38 36 34 31 28 26 24 24 24 24 22 21 19 17 16 15 16 16 17 19 20 20 21 23 24 23 22 20 21 25 27 26 25 23 22 22 23 22 19 16 17
25 27 27 27 32 32 31 34 37 38 38 37 36 34 32 29 27 26 27 27 26 26 23 21 20 19 18 19 19 21 22 23 23 22 23 24 22 22 22 25 26 25 24 24 23 22 23 24 23 21 18 20
25 27 29 29 33 34 33 37 40 39 37 35 33 32 31 30 29 27 27 28 28 27 24 22 22 21 20 19 20 23 23 23 22 22 23 24 22 22 24 26 26 24 22 21 22 23 23 24 23 22 21 24
23 25 29 30 33 36 38 40 42 40 38 36 34 32 32 31 30 29 29 29 29 28 25 25 24 22 21 21 21 22 22 22 22 23 24 24 22 23 25 25 25 24 22 20 22 23 23 24 23 23 24 25
22 25 28 31 35 38 41 42 42 41 39 37 35 34 32 31 30 30 30 30 29 29 28 26 24 23 23 22 21 20 21 21 23 23 23 23 23 24 24 23 24 24 22 20 20 22 22 22 22 23 24 23
19 25 29 33 37 40 42 42 42 41 39 37 35 34 32 31 31 31 31 30 30 30 30 28 25 25 25 23 21 20 20 21 22 22 22 22 23 24 24 23 23 23 23 21 19 20 20 20 20 21 21 21
11 21 28 32 36 41 42 42 41 39 38 37 36 34 32 29 28 29 30 30 31 32 32 30 26 26 26 24 21 20 20 20 19 20 21 22 24 24 24 24 23 23 22 21 19 18 18 18 18 18 19 19
5 11 18 26 33 38 40 39 39 39 38 37 36 32 30 27 24 26 29 30 32 33 32 32 29 27 25 24 24 21 20 20 20 20 21 22 23 24 23 24 23 22 21 20 18 15 14 15 16 16 17 17
3 4 6 15 25 32 35 36 36 37 37 36 34 30 29 27 23 26 28 28 31 33 33 33 31 27 25 25 26 24 22 21 21 20 20 20 21 22 22 23 23 22 21 20 17 16 15 14 15 15 15 15
0 2 2 6 15 22 27 33 35 33 34 33 32 31 30 28 24 26 28 29 31 32 33 33 31 29 27 27 27 25 22 20 20 19 19 19 19 20 22 23 22 22 21 20 19 19 18 17 15 14 14 13
3 1 2 3 7 14 18 25 30 30 30 29 29 29 28 27 26 27 28 29 30 30 31 31 30 31 31 30 27 24 21 18 17 18 18 18 18 19 20 21 21 21 20 20 21 20 19 18 16 14 13 13
6 1 1 1 3 9 11 16 21 25 30 29 26 25 25 26 26 26 26 26 27 27 29 30 31 32 31 30 26 23 21 18 17 16 17 17 18 18 18 19 20 20 20 20 20 20 19 18 16 15 14 13
8 3 1 3 2 4 7 9 12 17 24 27 23 22 23 24 23 23 22 22 23 25 27 29 31 31 29 27 24 21 19 18 17 16 16 16 16 17 18 19 19 19 20 20 19 19 18 17 16 15 14 13
8 5 2 3 5 5 4 4 7 12 18 21 22 22 22 21 21 20 20 20 21 23 25 27 28 29 27 25 22 19 18 17 16 15 15 16 15 16 17 19 19 19 19 19 19 18 17 16 15 15 15 14
10 5 3 5 6 8 9 4 4 9 14 18 21 22 21 20 19 19 20 20 20 21 22 24 25 26 26 24 21 20 19 18 16 15 15 16 16 16 16 19 19 19 19 19 19 18 17 16 15 15 15 15
13 9 6 7 8 9 12 10 10 13 14 16 19 19 19 18 18 19 19 18 19 20 21 22 23 23 23 22 22 21 20 20 19 17 16 17 18 17 17 18 19 20 19 18 17 17 16 16 16 15 15 15
16 13 10 7 7 8 10 11 14 18 18 17 17 17 18 17 17 18 18 17 17 19 20 21 21 22 22 23 23 23 22 21 20 19 19 19 19 19 18 18 19 19 19 18 15 14 15 15 15 16 16 17
20 18 15 10 6 6 6 7 10 15 17 16 14 14 17 17 17 17 17 17 18 19 20 20 20 21 22 23 23 22 21 21 20 20 20 20 19 19 19 19 19 19 19 17 13 10 11 14 15 16 17 19
19 18 16 12 8 5 3 4 6 9 12 13 12 12 14 16 17 19 19 19 20 21 20 20 20 21 22 22 22 22 21 21 21 19 19 20 20 19 19 20 21 21 19 15 12 8 5 8 14 17 19 21
18 15 13 12 9 7 3 1 3 5 7 9 10 10 11 13 16 18 20 22 22 22 21 20 21 21 22 23 24 24 23 22 21 20 20 22 22 20 19 19 21 24 22 16 13 8 3 3 5 10 17 22
17 14 11 9 8 7 6 4 1 3 4 5 7 8 9 10 13 16 19 21 22 22 20 20 21 21 22 23 24 24 23 22 22 21 22 23 23 22 20 19 20 24 25 22 16 8 2 1 1 3 7 12
17 15 13 10 7 7 8 7 5 3 2 1 3 5 7 9 12 13 16 18 20 21 20 20 21 21 21 22 23 23 23 23 22 22 23 24 24 23 22 20 20 23 26 25 21 14 5 3 1 4 2 2
17 16 16 14 12 11 11 11 10 8 6 3 1 3 6 8 10 12 14 15 17 19 19 20 21 21 21 21 22 23 23 23 23 23 24 24 25 24 23 21 20 23 27 25 23 22 15 7 4 3 3 2
18 17 16 15 14 13 12 12 10 9 8 5 2 3 5 6 8 10 12 13 14 16 17 18 19 20 21 22 22 23 24 24 24 24 24 24 24 23 23 23 22 23 26 25 24 25 23 16 9 4 4 3
Wind_Direction
229 232 241 237 229 225 221 213 207 207 207 200 191 183 170 163 158 157 155 154 170 177 186 192 189 179 171 167 161 158 152 151 158 154 150 155 158 154 147 148 150 150 151 153 157 160 160 160 160 160 155 152
243 242 244 236 226 222 221 216 210 208 205 196 184 173 164 163 161 158 152 152 170 177 178 181 184 178 169 164 159 158 155 155 161 156 155 161 163 158 148 150 153 151 154 159 160 163 164 164 162 159 155 152
247 244 243 234 222 216 217 216 212 209 202 189 175 165 162 162 159 153 145 144 158 173 174 170 171 168 163 161 159 159 159 162 165 161 163 166 165 160 149 150 153 150 158 164 163 165 166 163 160 157 154 151
246 239 236 230 220 211 211 213 210 207 197 183 168 161 159 155 154 153 147 150 159 171 169 163 162 162 162 161 160 160 164 170 170 167 168 168 163 157 150 149 149 150 161 165 163 165 164 160 158 156 153 151
249 238 234 227 218 209 208 207 205 200 187 175 164 159 158 156 161 160 157 159 164 170 166 163 161 161 164 163 164 167 173 175 171 170 167 163 157 152 148 147 147 155 162 163 163 163 161 159 158 155 151 147
257 246 240 228 216 208 204 201 199 191 176 170 165 162 163 163 167 161 160 161 161 166 165 163 162 164 166 164 171 176 178 174 170 170 163 159 156 153 151 150 153 160 162 162 162 161 160 161 156 153 147 142
263 249 241 226 214 206 199 195 194 185 174 174 170 166 165 164 165 161 161 164 164 169 170 166 164 167 167 165 172 175 173 169 163 160 156 156 157 156 156 156 158 160 160 160 161 160 161 161 156 152 146 148
266 252 241 222 208 202 195 188 181 175 174 176 174 169 166 163 164 163 165 170 173 176 178 174 169 169 170 169 172 172 164 155 150 147 150 155 156 158 158 157 158 159 159 159 160 161 162 160 157 155 153 158
270 255 242 221 204 198 190 181 173 170 171 173 174 169 166 166 166 167 168 171 174 176 180 179 173 171 173 174 172 170 160 149 151 151 152 156 155 156 156 154 157 160 160 158 161 162 162 160 155 154 158 163
267 249 234 215 198 192 183 177 175 173 172 173 175 169 166 167 168 170 170 171 174 175 179 177 174 170 173 178 169 163 158 152 157 157 156 158 155 155 157 155 157 162 162 162 163 163 163 160 157 159 162 164
255 233 223 208 191 186 178 174 175 176 177 177 177 173 170 169 169 172 171 172 174 174 176 174 172 168 170 176 165 156 155 152 156 157 157 159 156 156 159 159 160 163 164 168 168 164 164 161 161 164 164 164
244 219 210 199 186 181 177 175 176 177 179 178 176 173 172 171 171 172 169 170 172 172 172 171 170 166 168 173 164 155 155 154 156 157 159 159 158 159 161 161 162 163 161 167 173 167 165 163 162 164 164 164
238 215 200 190 182 177 176 176 177 178 176 173 173 173 174 174 171 170 168 168 171 171 168 168 168 167 169 173 168 160 157 157 159 158 161 162 161 161 162 163 163 163 160 163 172 170 167 167 166 166 168 169
215 203 191 184 178 174 175 177 177 177 174 172 173 173 174 174 172 172 171 170 172 171 168 166 167 168 170 173 171 168 163 161 164 164 164 163 162 163 162 163 165 165 162 162 169 172 169 170 171 172 174 175
184 178 181 179 175 173 174 175 176 175 173 175 176 173 171 173 176 178 175 174 173 172 171 169 169 169 170 171 171 174 171 165 169 170 166 164 164 165 165 165 167 167 166 165 168 175 176 177 177 177 179 179
202 161 166 168 168 171 173 174 173 173 173 174 174 171 173 177 180 182 179 178 176 174 174 173 171 170 172 172 169 171 173 167 169 169 165 166 166 167 168 169 170 171 171 171 177 189 193 189 184 182 183 184
179 158 129 145 157 163 170 173 172 169 169 170 170 169 174 177 178 183 183 181 179 176 176 174 170 169 171 172 167 165 168 167 167 169 166 166 168 169 170 171 172 174 175 175 180 188 190 188 184 183 184 185
36 122 125 107 146 155 158 165 168 169 169 168 167 168 172 174 175 181 184 182 180 178 176 173 168 167 168 169 168 165 170 175 171 171 171 168 168 169 172 173 173 176 177 174 176 179 180 181 182 184 184 185
29 26 247 15 126 152 151 152 159 169 173 170 165 167 169 170 172 177 181 182 183 180 177 172 167 167 168 168 170 169 173 182 177 175 176 175 174 170 172 176 173 176 178 173 173 176 177 179 182 186 189 189
24 31 249 257 245 160 151 149 148 156 165 166 165 169 170 169 172 176 181 186 187 181 176 173 168 168 171 171 172 172 175 182 182 179 178 181 186 180 176 177 176 177 179 177 176 178 179 181 184 187 190 196
28 41 95 195 227 209 180 144 128 138 152 160 168 176 176 174 175 179 184 190 190 184 178 176 172 171 175 177 179 180 180 184 187 188 185 181 189 193 186 182 181 179 180 180 180 182 184 185 188 191 194 199
37 50 101 138 162 187 190 180 135 148 158 164 172 179 181 181 183 185 186 188 190 187 183 181 178 177 177 181 187 188 187 188 190 195 197 189 187 195 196 191 187 184 183 183 184 186 189 192 195 197 202 206
36 53 83 121 138 156 167 170 174 179 182 179 180 187 188 188 190 189 187 190 193 192 189 186 184 183 184 189 192 193 194 192 192 195 200 199 193 193 199 201 196 191 187 184 185 189 191 197 202 205 209 212
30 37 49 77 112 127 141 153 165 179 190 190 187 194 198 197 196 193 192 195 199 199 196 193 192 191 194 198 197 197 197 195 199 200 199 201 199 194 194 196 198 196 192 187 186 192 197 201 207 214 217 220
28 28 28 31 55 90 121 141 154 170 185 193 194 195 200 203 201 200 202 202 202 202 201 199 199 198 196 197 199 202 203 203 205 202 199 200 200 198 195 192 195 197 195 190 187 195 209 217 220 223 226 228
26 29 27 21 21 44 107 150 153 162 178 194 203 198 200 205 203 203 206 207 205 203 204 204 202 201 200 202 205 206 207 209 208 203 201 202 199 199 201 201 199 196 193 190 188 187 207 239 240 239 238 236
23 26 28 28 26 25 35 132 160 160 168 187 201 203 201 203 205 207 208 209 208 206 207 207 206 206 207 209 210 209 208 208 209 207 205 206 206 203 203 207 205 200 198 193 180 168 181 244 258 256 249 244
19 21 26 34 39 36 36 38 70 162 163 178 195 205 207 206 207 211 213 212 211 211 211 210 211 213 213 213 213 214 215 212 211 212 210 210 212 209 203 205 207 205 204 201 187 163 135 116 91 271 254 249
17 17 20 29 43 49 48 42 34 39 71 155 192 203 210 212 211 212 215 216 215 215 216 216 216 217 218 217 217 219 221 220 218 217 216 215 216 216 213 209 209 207 206 207 204 194 172 108 155 245 242 273
20 21 21 25 35 39 40 42 36 26 18 6 289 219 216 216 214 213 214 216 216 216 217 218 218 219 221 222 223 224 224 225 223 220 220 220 221 222 222 217 213 211 210 210 210 210 212 211 208 209 170 171
23 26 27 30 36 37 37 39 35 28 22 15 339 248 236 233 226 219 217 218 217 216 215 216 218 221 223 224 225 225 225 226 227 227 226 225 227 227 226 222 218 216 212 211 213 215 219 226 224 201 160 172